Meteo orario Aljaraque

Oggi, 28 Ottobre, Mercoledi

Tempo Temperatura Precipitazioni Vento Pressione Umidità
00:00 +15°C° 0 mm 2 m/s 764 mm Hg 71%
01:00 +13°C° 0 mm 3 m/s 763 mm Hg 73%
02:00 +13°C° 0 mm 3 m/s 763 mm Hg 74%
03:00 +13°C° 0 mm 3 m/s 763 mm Hg 75%
04:00 +13°C° 0 mm 3 m/s 763 mm Hg 76%
05:00 +13°C° 0 mm 3 m/s 763 mm Hg 76%
06:00 +13°C° 0 mm 3 m/s 764 mm Hg 76%
07:00 +15°C° 0 mm 2 m/s 764 mm Hg 71%
08:00 +16°C° 0 mm 2 m/s 764 mm Hg 67%
09:00 +17°C° 0 mm 2 m/s 764 mm Hg 62%
10:00 +19°C° 0 mm 2 m/s 764 mm Hg 58%
11:00 +22°C° 0 mm 1 m/s 764 mm Hg 53%
12:00 +23°C° 0 mm 1 m/s 765 mm Hg 49%
13:00 +24°C° 0 mm 1 m/s 765 mm Hg 49%
14:00 +24°C° 0 mm 1 m/s 764 mm Hg 48%
15:00 +25°C° 0 mm 1 m/s 764 mm Hg 48%
16:00 +24°C° 0 mm 2 m/s 764 mm Hg 54%
17:00 +23°C° 0 mm 2 m/s 764 mm Hg 60%
18:00 +20°C° 0 mm 2 m/s 764 mm Hg 65%
19:00 +20°C° 0 mm 2 m/s 764 mm Hg 68%
20:00 +19°C° 0 mm 3 m/s 764 mm Hg 71%
21:00 +19°C° 0 mm 3 m/s 765 mm Hg 74%
22:00 +19°C° 0 mm 3 m/s 765 mm Hg 75%
23:00 +18°C° 0 mm 3 m/s 765 mm Hg 76%

Domani, 29 Ottobre, Giovedi

Tempo Temperatura Precipitazioni Vento Pressione Umidità
00:00 +18°C° 0 mm 3 m/s 765 mm Hg 77%
01:00 +18°C° 0 mm 3 m/s 764 mm Hg 77%
02:00 +17°C° 0 mm 3 m/s 764 mm Hg 78%
03:00 +17°C° 0 mm 3 m/s 764 mm Hg 78%
04:00 +17°C° 0 mm 3 m/s 764 mm Hg 79%
05:00 +17°C° 0 mm 3 m/s 764 mm Hg 79%
06:00 +17°C° 0 mm 3 m/s 764 mm Hg 80%
07:00 +18°C° 0 mm 3 m/s 765 mm Hg 73%
08:00 +20°C° 0 mm 3 m/s 765 mm Hg 67%
09:00 +21°C° 0 mm 4 m/s 766 mm Hg 61%
10:00 +23°C° 0 mm 4 m/s 765 mm Hg 55%
11:00 +25°C° 0 mm 4 m/s 765 mm Hg 49%
12:00 +27°C° 0 mm 3 m/s 765 mm Hg 43%
13:00 +28°C° 0 mm 3 m/s 765 mm Hg 41%
14:00 +28°C° 0 mm 3 m/s 764 mm Hg 39%
15:00 +29°C° 0 mm 2 m/s 764 mm Hg 37%
16:00 +27°C° 0 mm 2 m/s 764 mm Hg 41%
17:00 +25°C° 0 mm 1 m/s 764 mm Hg 46%
18:00 +23°C° 0 mm 1 m/s 764 mm Hg 50%
19:00 +22°C° 0 mm 1 m/s 764 mm Hg 51%
20:00 +21°C° 0 mm 1 m/s 764 mm Hg 53%
21:00 +20°C° 0 mm 1 m/s 765 mm Hg 54%
22:00 +20°C° 0 mm 1 m/s 765 mm Hg 55%
23:00 +19°C° 0 mm 1 m/s 764 mm Hg 55%

Dopodomani, 30 Ottobre, Venerdi

Tempo Temperatura Precipitazioni Vento Pressione Umidità
00:00 +18°C° 0 mm 2 m/s 764 mm Hg 55%
01:00 +17°C° 0 mm 2 m/s 764 mm Hg 56%
02:00 +17°C° 0 mm 2 m/s 764 mm Hg 57%
03:00 +16°C° 0 mm 2 m/s 764 mm Hg 57%
04:00 +16°C° 0 mm 3 m/s 764 mm Hg 58%
05:00 +16°C° 0 mm 3 m/s 764 mm Hg 59%
06:00 +16°C° 0 mm 3 m/s 764 mm Hg 60%
07:00 +17°C° 0 mm 4 m/s 764 mm Hg 57%
08:00 +19°C° 0 mm 4 m/s 764 mm Hg 54%
09:00 +20°C° 0 mm 4 m/s 764 mm Hg 50%
10:00 +22°C° 0 mm 3 m/s 764 mm Hg 46%
11:00 +25°C° 0 mm 3 m/s 764 mm Hg 41%
12:00 +27°C° 0 mm 2 m/s 764 mm Hg 36%
13:00 +27°C° 0 mm 2 m/s 764 mm Hg 35%
14:00 +28°C° 0 mm 2 m/s 763 mm Hg 33%
15:00 +28°C° 0 mm 1 m/s 763 mm Hg 31%
16:00 +26°C° 0 mm 1 m/s 763 mm Hg 37%
17:00 +24°C° 0 mm 1 m/s 763 mm Hg 43%
18:00 +22°C° 0 mm 1 m/s 763 mm Hg 49%
19:00 +22°C° 0 mm 1 m/s 764 mm Hg 50%
20:00 +21°C° 0 mm 1 m/s 764 mm Hg 51%
21:00 +20°C° 0 mm 2 m/s 764 mm Hg 52%
22:00 +20°C° 0 mm 2 m/s 764 mm Hg 53%
23:00 +19°C° 0 mm 2 m/s 764 mm Hg 54%

31 Ottobre, Sabato

Tempo Temperatura Precipitazioni Vento Pressione Umidità
00:00 +19°C° 0 mm 2 m/s 764 mm Hg 55%
01:00 +19°C° 0 mm 1 m/s 764 mm Hg 56%
02:00 +19°C° 0 mm 1 m/s 764 mm Hg 57%
03:00 +18°C° 0 mm 1 m/s 764 mm Hg 58%
04:00 +18°C° 0 mm 1 m/s 764 mm Hg 59%
05:00 +18°C° 0 mm 1 m/s 764 mm Hg 61%
06:00 +16°C° 0 mm 1 m/s 764 mm Hg 62%
07:00 +19°C° 0 mm 1 m/s 765 mm Hg 58%
08:00 +20°C° 0 mm 1 m/s 765 mm Hg 54%
09:00 +21°C° 0 mm 1 m/s 765 mm Hg 50%
10:00 +23°C° 0 mm 1 m/s 765 mm Hg 46%
11:00 +25°C° 0 mm 1 m/s 765 mm Hg 41%
12:00 +27°C° 0 mm 1 m/s 765 mm Hg 37%
13:00 +27°C° 0 mm 1 m/s 764 mm Hg 37%
14:00 +27°C° 0 mm 1 m/s 764 mm Hg 36%
15:00 +28°C° 0 mm 2 m/s 764 mm Hg 35%
16:00 +26°C° 0 mm 2 m/s 764 mm Hg 41%
17:00 +24°C° 0 mm 2 m/s 764 mm Hg 47%
18:00 +21°C° 0 mm 3 m/s 764 mm Hg 54%
19:00 +21°C° 0 mm 2 m/s 764 mm Hg 55%
20:00 +20°C° 0 mm 2 m/s 765 mm Hg 56%
21:00 +20°C° 0 mm 2 m/s 765 mm Hg 57%
22:00 +20°C° 0 mm 3 m/s 765 mm Hg 57%
23:00 +19°C° 0 mm 3 m/s 765 mm Hg 56%

1 Novenbre, Domenica

Tempo Temperatura Precipitazioni Vento Pressione Umidità
00:00 +19°C° 0 mm 3 m/s 764 mm Hg 56%
01:00 +19°C° 0 mm 3 m/s 764 mm Hg 57%
02:00 +18°C° 0 mm 3 m/s 764 mm Hg 58%
03:00 +18°C° 0 mm 3 m/s 764 mm Hg 59%
04:00 +18°C° 0 mm 2 m/s 764 mm Hg 61%
05:00 +17°C° 0 mm 2 m/s 764 mm Hg 63%
06:00 +17°C° 0 mm 2 m/s 764 mm Hg 64%
07:00 +19°C° 0 mm 2 m/s 764 mm Hg 60%
08:00 +20°C° 0 mm 2 m/s 764 mm Hg 56%
09:00 +21°C° 0 mm 2 m/s 764 mm Hg 52%
10:00 +24°C° 0 mm 1 m/s 764 mm Hg 47%
11:00 +26°C° 0 mm 1 m/s 764 mm Hg 42%
12:00 +26°C° 0 mm 0 m/s 764 mm Hg 37%
13:00 +28°C° 0 mm 1 m/s 763 mm Hg 36%
14:00 +28°C° 0 mm 1 m/s 763 mm Hg 35%
15:00 +29°C° 0 mm 1 m/s 763 mm Hg 34%
16:00 +27°C° 0 mm 2 m/s 763 mm Hg 40%
17:00 +25°C° 0 mm 2 m/s 762 mm Hg 46%
18:00 +23°C° 0 mm 2 m/s 762 mm Hg 52%
19:00 +21°C° 0 mm 2 m/s 762 mm Hg 54%
20:00 +21°C° 0 mm 2 m/s 762 mm Hg 56%
21:00 +20°C° 0 mm 2 m/s 762 mm Hg 58%
22:00 +21°C° 0 mm 1 m/s 762 mm Hg 59%
23:00 +20°C° 0 mm 1 m/s 762 mm Hg 60%

2 Novenbre, Lunedi

Tempo Temperatura Precipitazioni Vento Pressione Umidità
00:00 +20°C° 0 mm 1 m/s 762 mm Hg 61%
01:00 +20°C° 0 mm 1 m/s 762 mm Hg 62%
02:00 +19°C° 0 mm 1 m/s 761 mm Hg 63%
03:00 +19°C° 0 mm 1 m/s 761 mm Hg 64%
04:00 +19°C° 0 mm 1 m/s 761 mm Hg 65%
05:00 +18°C° 0 mm 1 m/s 761 mm Hg 67%
06:00 +18°C° 0 mm 1 m/s 761 mm Hg 68%
07:00 +19°C° 0 mm 1 m/s 761 mm Hg 63%
08:00 +21°C° 0 mm 1 m/s 762 mm Hg 58%
09:00 +22°C° 0 mm 1 m/s 762 mm Hg 53%
10:00 +23°C° 0 mm 1 m/s 762 mm Hg 49%
11:00 +25°C° 0 mm 1 m/s 762 mm Hg 45%
12:00 +26°C° 0 mm 1 m/s 762 mm Hg 42%
13:00 +26°C° 0 mm 1 m/s 761 mm Hg 42%
14:00 +26°C° 0 mm 2 m/s 761 mm Hg 43%
15:00 +26°C° 0 mm 2 m/s 761 mm Hg 43%
16:00 +25°C° 0 mm 2 m/s 761 mm Hg 49%
17:00 +22°C° 0 mm 3 m/s 761 mm Hg 55%
18:00 +21°C° 0 mm 3 m/s 761 mm Hg 60%
19:00 +21°C° 0 mm 3 m/s 761 mm Hg 61%
20:00 +20°C° 0 mm 3 m/s 761 mm Hg 61%
21:00 +20°C° 0 mm 3 m/s 762 mm Hg 62%
22:00 +20°C° 0 mm 4 m/s 762 mm Hg 61%
23:00 +20°C° 0 mm 4 m/s 762 mm Hg 60%
Mostrare altro

Abbiamo bisogno del tuo consenso

Meteoprog e i nostri fornitori di servizi possono memorizzare e accedere a dati personali come cookie, identificatori di dispositivi o altre tecnologie simili sul tuo dispositivo e possono elaborare tali dati per personalizzare i contenuti e gli annunci, nonché fornire funzionalità dei social media e analizzarne il traffico.

  • Archiviare e/o accedere alle informazioni sul tuo dispositivo

    Cookie, identificatori di dispositivi o altre informazioni possono essere memorizzati o resi accessibili sul tuo dispositivo per le finalità sopra indicate.

  • Annunci e contenuti personalizzati, misurazione di annunci e contenuti, approfondimenti sul pubblico e sviluppo di prodotti

    Gli annunci e i contenuti possono essere personalizzati in base a un profilo. È possibile aggiungere più dati per personalizzare meglio annunci e contenuti. È possibile misurare il rendimento degli annunci e dei contenuti. È possibile ricavare informazioni sul pubblico che ha visto gli annunci e i contenuti. Tali dati possono essere utilizzati per sviluppare o migliorare l'esperienza, i sistemi e il software dell'utente.

Cliccando su “Accetto”, acconsenti all'uso di cookie, identificatori di dispositivo, web beacon o altre tecnologie simili. Puoi modificare le impostazioni nel browser del tuo dispositivo.

Per determinati scopi, è possibile fare affidamento su interessi legali, piuttosto che sul consenso. Puoi approfondire questo argomento consultando la nostra Informativa sulla privacy e sui cookie.